Preview of NWS' New Version of Forecast
This preview is not operational and should not be used for support decisions.
Latest weather observations around

Allen County Airport (KK88)

Using English Units (Switch to International System of Units)
Date/ Time (CDT) Wind (mph) Vis. (mi) Weather Sky Cond. Temp (°F) Rel. Humidity Wind Chill (°F) Heat Index (°F) Pressure Precip. (in)
Air Dwpt 6 hour Altimeter (inHg) Sea level (inHg) 1 hr 3 hr 6 hr
Max Min
Sep 23 12:35 E 9 10 Clear   76 58     54%   76 30.13        
Sep 23 12:15 E 9 10 Clear   75 59     57%   75 30.13        
Sep 23 11:55 E 8 10 Clear   74 58     56%   74 30.14        
Sep 23 11:35 ESE 8 10 Clear   74 59     60%   73 30.14        
Sep 23 11:15 ESE 10 10 Clear   73 61     66%   73 30.14        
Sep 23 10:55 E 12 10 Clear   71 61     70%   71 30.13        
Sep 23 10:35 E 7 10 Clear   67 65     91%     30.13        
Sep 23 10:15 E 9 10 Clear   65 65     99%     30.14        
Sep 23 09:55 E 6 10 Clear   64 64     100%     30.13        
Sep 23 09:35 E 7 10 Clear   63 63     100%     30.13        
Sep 23 09:15 E 5 10 Partly Cloudy SCT001 62 62     100%     30.13        
Sep 23 08:55 E 6 1 Clear   61 61     100%     30.13        
Sep 23 08:35 ENE 3 0.25 Clear   59 59     100%     30.12        
Sep 23 08:10 Calm   Clear   56 56     100%     30.11        
Sep 23 07:55 Calm 0.25 Cloudy OVC001 54 54     100%     30.11        
Sep 23 07:35 E 3 0.25 Clear   53 53     100%     30.11        
Sep 23 07:15 Calm   Clear   53 53     100%     30.11        
Sep 23 06:55 Calm 0.5 Clear   53 53     100%     30.1        
Sep 23 06:35 Calm 0.5 Clear   54 54     100%     30.1        
Sep 23 06:15 Calm 0.25 Clear   54 54     100%     30.09        
Sep 23 05:55 Calm 0.5 Clear VV005 53 53     100%     30.09        
Sep 23 05:35 Calm 0.75 Clear   55 55     100%     30.08        
Sep 23 05:15 Calm 0.25 Clear   54 54     100%     30.08        
Sep 23 04:55 Calm 0.5 Clear   54 54     100%     30.08        
Sep 23 04:35 Calm 0.25 Clear   54 54     100%     30.08        
Sep 23 04:15 Calm 1 Clear   56 56     100%     30.08        
Sep 23 03:55 Calm 4 Clear   56 56     100%     30.08        
Sep 23 03:35 N 3 10 Clear   58 58     100%     30.08        
Sep 23 03:15 N 3 7 Clear   57 57     100%     30.08        
Sep 23 02:55 N 3 7 Clear   57 57     100%     30.07        
Sep 23 02:35 N 3 7 Clear   58 57     99%     30.08        
Sep 23 02:15 N 3 10 Clear   58 58     99%     30.08        
Sep 23 01:55 N 5 10 Clear   59 59     100%     30.07        
Sep 23 01:35 N 5 10 Clear   59 59     99%     30.07        
Sep 23 01:15 N 5 10 Clear   60 59     98%     30.07        
Sep 23 00:55 N 5 10 Clear   59 59     98%     30.07        
Sep 23 00:35 Calm 10 Clear   60 59     96%     30.06        
Sep 23 00:15 N 3 10 Clear   61 60     97%     30.06        
Sep 22 23:55 Calm 10 Clear CLR 61 60     96%     30.06        
Sep 22 23:35 N 7 10 Clear   62 60     94%     30.06        
Sep 22 23:15 N 3 10 Clear   62 60     94%     30.05        
Sep 22 22:55 N 3 10 Clear CLR 63 61     93%     30.05        
Sep 22 22:35 N 6 10 Clear   64 61     90%     30.04        
Sep 22 22:15 N 7 10 Clear   64 62     92%     30.04        
Sep 22 21:55 N 8 10 Clear   65 62     90%     30.03        
Sep 22 21:35 N 8 10 Clear   66 63     90%     30.03        
Sep 22 21:15 N 6 10 Clear   66 63     89%     30.03        
Sep 22 20:55 N 6 10 Clear   67 63     87%     30.01        
Sep 22 20:35 N 7 10 Clear   69 63     81%     30.01        
Sep 22 20:15 NNW 8 10 Clear   70 64     81%     30        
Sep 22 19:55 N 8 10 Clear   69 65     85%     29.99        
Sep 22 19:35 NNW 7 10 Clear   70 65     84%     29.98        
Sep 22 19:15 NW 7 10 Clear   71 65     80%   72 29.96        
Sep 22 18:55 NW 10 10 Clear   73 65     77%   74 29.95        
Sep 22 18:35 NW 8 10 Clear   75 67     77%   76 29.94        
Sep 22 18:15 NW 13 10 Clear   77 68     74%   78 29.93        
Sep 22 17:55 WNW 9 10 Clear   77 69     76%   78 29.92        
Sep 22 17:35 W 5 10 Clear   75 72     91%   77 29.9        
Sep 22 17:15 S 6 10 Clear   76 72     90%   77 29.89        
Sep 22 16:55 SSW 7 10 Clear   77 73     88%   79 29.89        
Sep 22 16:35 WSW 5 10 Clear   77 74     90%   78 29.89        
Sep 22 16:15 S 3 7 Clear   74 72     94%   75 29.9        
Sep 22 15:55 WSW 10 1.75 Cloudy SCT011 BKN017 OVC026 76 72     87%   78 29.9   0    
Sep 22 15:35 SSW 15 10 Clear   78 72     81%   80 29.89        
Sep 22 15:15 SSW 15 10 Clear   81 73     78%   86 29.89        
Sep 22 14:55 S 14 10 Clear   78 73     83%   80 29.89        
Sep 22 14:35 SSW 17 10 Clear   79 73     83%   82 29.89        
Sep 22 14:15 SSW 14 10 Mostly Cloudy BKN014 SCT080 77 73     88%   78 29.89        
Sep 22 13:55 S 13 10 Cloudy BKN014 BKN036 OVC070 77 73     88%   78 29.9        
Sep 22 13:35 SSW 15 10 Clear   76 72     89%   77 29.91        
Sep 22 13:15 SSW 15 10 Clear   74 72     94%   76 29.92        
Sep 22 12:55 SSW 15 10 Clear   74 72     96%   75 29.92        
Sep 22 12:35 SSW 14 10 Clear   73 72     97%   75 29.92        
Sep 22 12:15 SSW 16 10 Clear   73 72     98%   75 29.93        
Sep 22 11:55 SSW 15 10 Clear   72 72     98%   74 29.93        
Sep 22 11:35 SSW 13 10 Clear   72 72     99%   73 29.93        
Sep 22 11:15 SSW 10 10 Clear   72 71     99%   73 29.93        
Sep 22 10:55 S 9 10 Clear   71 71     100%   72 29.93        
Sep 22 10:35 S 9 10 Clear   70 70     100%     29.92        
Sep 22 10:15 SSW 7 10 Clear   69 68     99%     29.92        
Sep 22 09:55 S 13 3 Clear   68 68     100%     29.92        
Sep 22 09:35 SSW 12 10 Clear   68 68     99%     29.91        
Sep 22 09:15 SW 8 5 Clear   67 67     99%     29.91        
Sep 22 08:55 SW 8 5 Cloudy SCT008 BKN020 OVC024 67 67     99%     29.91   0    
Sep 22 08:35 SSW 10 1.5 Clear   67 67     99%     29.92        
Sep 22 08:15 SSW 14 4 Cloudy SCT012 BKN018 OVC028 68 67     98%     29.9   0    
Sep 22 07:55   2 Clear   70 69     97%     29.89        
Sep 22 07:35 SSE 20 1.5 Clear   71 70     98%   72 29.87        
Sep 22 07:15 S 15 2.5 Clear   71 70     97%   72 29.88        
Sep 22 06:55 SSE 12 5 Clear   71 70     96%   72 29.9        
Sep 22 06:35 SSE 7 10 Cloudy BKN019 OVC025 71 70     96%   72 29.9   0    
Sep 22 06:15 SSE 7 10 Clear   71 70     96%   72 29.91        
Sep 22 05:55 SSE 6 10 Cloudy SCT025 OVC032 71 69     95%   72 29.92   0    
Sep 22 05:35 S 6 10 Clear   71 70     95%   73 29.92        
Sep 22 05:15 S 8 10 Clear   71 69     93%   73 29.93        
Sep 22 04:55 S 7 10 Clear   72 69     92%   73 29.92        
Sep 22 04:35 S 13 5 Clear   72 69     88%   74 29.93        
Sep 22 04:15 S 13 10 Cloudy BKN042 BKN055 OVC070 73 68     84%   74 29.93        
Sep 22 03:55 SSW 14 10 Clear   74 68     83%   75 29.94        
Sep 22 03:35 S 14 10 Clear   74 68     83%   75 29.93        
Sep 22 03:15 S 15 10 Clear   74 68     83%   75 29.93        
Sep 22 02:55 S 15 10 Clear   74 69     83%   75 29.94        
Sep 22 02:35 S 16 10 Clear   74 68     82%   75 29.94        
Sep 22 02:15 S 13 10 Clear   74 68     82%   75 29.95        
Sep 22 01:55 S 13 10 Clear   74 68     81%   75 29.95        
Sep 22 01:35 S 14 10 Clear   74 68     81%   75 29.95        
Sep 22 01:15 S 13 10 Clear   74 68     81%   75 29.96        
Sep 22 00:55 S 10 10 Clear   74 68     82%   75 29.96        
Sep 22 00:35 S 8 10 Clear   73 68     83%   74 29.96        
Sep 22 00:15 S 12 10 Clear   73 68     83%   74 29.96        
Sep 21 23:55 S 10 10 Clear   73 68     83%   74 29.96        
Sep 21 23:35 S 12 10 Clear CLR 73 68     83%   74 29.95        
Sep 21 23:15 S 13 10 Clear   73 68     83%   74 29.95        
Sep 21 22:55 S 15 10 Clear   73 68     83%   74 29.95        
Sep 21 22:35 SSE 14 10 Clear   73 68     84%   74 29.93        
Sep 21 22:15 SSE 14 10 Clear   74 69     84%   75 29.93        
Sep 21 21:55 S 13 10 Clear   74 69     85%   75 29.94        
Sep 21 21:35 SSE 14 10 Clear   74 70     86%   75 29.94        
Sep 21 21:15 SSE 14 10 Clear   74 70     89%   75 29.94        
Sep 21 20:55 SSE 12 10 Clear   73 71     92%   75 29.95        
Sep 21 20:35 S 10 10 Clear   74 72     94%   75 29.94        
Sep 21 20:15 SSE 8 10 Partly Cloudy SCT110 74 72     94%   75 29.96        
Sep 21 19:55 S 8 10 Clear   74 72     94%   75 29.97        
Sep 21 19:35 SSE 10 10 Clear   74 72     95%   76 29.96        
Sep 21 19:15 SSE 7 10 Clear   74 73     96%   75 29.97        
Sep 21 18:55 SSE 6 10 Cloudy SCT009 BKN028 OVC065 72 71     95%   74 29.97   0    
Sep 21 18:35 S 9 1.5 Clear   74 72     93%   76 29.98        
Sep 21 18:15 S 13 10 Clear   75 72     91%   77 29.97        
Sep 21 17:55 SSE 8 10 Clear   76 72     88%   78 29.97        
Sep 21 17:35 SSE 8 10 Clear   76 72     87%   78 29.97        
Sep 21 17:15 SSE 9 10 Clear   77 72     86%   78 29.97        
Sep 21 16:55 SSE 13 10 Clear   77 73     87%   78 29.97        
Sep 21 16:35 SSE 10 10 Clear   76 72     85%   78 29.98        
Sep 21 16:15 SSE 14 10 Clear   77 72     84%   78 29.98        
Sep 21 15:55 SSE 14 10 Clear   75 71     86%   76 29.98        
Sep 21 15:35 SE 13 10 Clear   74 70     87%   76 29.98        
Sep 21 15:15 SE 12 10 Clear   73 69     87%   75 29.99        
Sep 21 14:55 SE 10 10 Cloudy OVC038 72 68     87%   73 30        
Sep 21 14:35 SSE 9 10 Clear   71 67     88%   72 30.01        
Sep 21 14:15 SSE 12 10 Clear   72 68     87%   73 30.02        
Sep 21 13:55 S 13 10 Partly Cloudy SCT031 SCT038 SCT080 71 68     93%   72 30.02        
Sep 21 13:35 SSE 17 10 Clear   69 68     95%     30.02        
Sep 21 13:15 S 21 10 Clear and Windy   70 69     96%     30.03        
Sep 21 12:55 S 16 10 Clear   70 69     97%     30.02        
Sep 21 12:35 S 20 3 Clear   70 69     96%   71 30.02        
Sep 21 12:15 S 17 7 Clear   72 71     97%   73 30.02        
Sep 21 11:55 S 21 5 Clear and Windy   72 70     95%   73 30.02        
Sep 21 11:35 S 16 10 Clear   73 71     92%   74 30.03        
Sep 21 11:15 S 17 10 Clear   73 71     91%   75 30.02        
Sep 21 10:55 S 16 10 Cloudy SCT018 OVC022 74 71     89%   76 30.03        
Sep 21 10:35 S 16 10 Clear   74 71     90%   75 30.03        
Sep 21 10:15 S 17 10 Clear   74 71     91%   75 30.03        
Sep 21 09:55 S 15 10 Clear   74 71     91%   75 30.03        
Sep 21 09:35 S 17 10 Clear   74 71     91%   75 30.02        
Sep 21 09:15 S 14 10 Clear   74 71     91%   75 30.02        
Sep 21 08:55 S 16 10 Clear   74 72     93%   75 30.02        
Sep 21 08:35 S 13 10 Clear   74 71     93%   75 30.02        
Sep 21 08:15 S 14 10 Clear   74 71     92%   75 30.02        
Sep 21 07:55 S 15 10 Clear   74 71     92%   75 30.02        
Sep 21 07:35 S 12 10 Clear   73 71     92%   75 30.01        
Sep 21 07:15 S 15 10 Clear   73 71     92%   74 30.01        
Sep 21 06:55 S 9 10 Clear   73 71     93%   74 30        
Sep 21 06:35 S 10 10 Clear   73 71     94%   74 30        
Sep 21 06:15 S 10 10 Mostly Cloudy BKN014 BKN022 73 71     94%   74 30        
Sep 21 05:55 SSE 14 10 Clear   72 71     94%   74 29.99        
Sep 21 05:35 SSE 14 10 Clear   72 71     94%   74 29.98        
Sep 21 05:15 SSE 12 10 Cloudy OVC012 72 71     94%   74 29.98        
Sep 21 04:55 SSE 10 10 Clear   72 71     95%   74 29.99        
Sep 21 04:35 SSE 10 10 Clear   72 71     94%   74 29.99        
Sep 21 04:15 SSE 10 10 Clear   72 70     94%   73 29.99        
Sep 21 03:55 SSE 9 10 Clear   72 71     94%   74 29.99        
Sep 21 03:35 S 9 10 Clear   72 71     95%   74 30        
Sep 21 03:15 SSE 9 10 Clear   72 71     96%   73 29.99        
Sep 21 02:55 S 9 10 Clear   72 71     96%   73 30        
Sep 21 02:35 SSE 10 10 Clear   72 70     95%   73 29.99        
Sep 21 02:15 S 9 10 Clear   72 70     95%   73 29.99        
Sep 21 01:55 SSE 10 10 Clear   71 70     96%   72 29.99        
Sep 21 01:35 SSE 9 10 Clear   71 70     96%   72 30        
Sep 21 01:15 SSE 10 10 Clear   71 70     97%   72 29.99        
Sep 21 00:55 S 10 10 Cloudy OVC010 71 70     97%   72 30        
Sep 21 00:35 S 12 10 Clear   70 70     98%   72 30        
Sep 21 00:15 SSE 10 10 Clear   70 70     98%   72 30        
Sep 20 23:55 SSE 14 10 Cloudy BKN010 OVC014 70 70     99%   72 30        
Sep 20 23:35 SSE 12 10 Clear   70 70     99%   72 30        
Sep 20 23:15 SSE 10 10 Cloudy OVC008 70 70     99%   72 30        
Sep 20 22:55 SSE 10 7 Clear   70 70     99%   72 30        
Sep 20 22:35 SSE 10 7 Clear   70 70     99%   72 30        
Sep 20 22:15 SE 12 7 Clear   70 70     98%   72 30        
Sep 20 21:55 SE 9 5 Clear   70 70     98%   72 29.99        
Sep 20 21:35 SE 10 4 Clear   71 69     96%   72 29.99        
Sep 20 21:15 SE 7 10 Clear   71 69     95%   72 29.99        
Sep 20 20:55 SE 7 10 Clear   71 69     95%   72 29.98        
Sep 20 20:35 SE 8 10 Clear   71 70     96%   72 29.98        
Sep 20 20:15 SE 8 10 Clear   71 70     96%   72 29.98        
Sep 20 19:55 SE 9 10 Clear   71 70     96%   72 29.98        
Sep 20 19:35 SSE 8 10 Clear   71 70     97%   72 29.98        
Sep 20 19:15 SE 9 10 Clear   71 70     97%   72 29.97        
Sep 20 18:55 SSE 7 10 Clear   71 70     98%   72 29.97        
Sep 20 18:35 SE 9 7 Clear   71 70     97%   72 29.97        
Sep 20 18:15 SE 8 10 Clear   71 70     96%   72 29.97        
Sep 20 17:55 SE 7 3 Clear   71 70     95%   73 29.97        
Sep 20 17:35 SE 8 10 Clear   72 70     95%   73 29.97        
Sep 20 17:15 SE 8 10 Clear   72 70     96%   73 29.97        
Sep 20 16:55 SSE 12 7 Cloudy SCT009 OVC016 71 70     97%   72 29.98        
Sep 20 16:35 SSE 15 5 Clear   71 70     96%   72 29.99        
Sep 20 16:15 SE 14 10 Clear   71 70     97%   72 29.99        
Sep 20 15:55 SE 14 4 Clear   71 70     97%   72 29.99        
Sep 20 15:35 SE 12 4 Clear   71 70     96%   72 29.99        
Sep 20 15:15 SE 15 3 Clear   71 70     96%   72 30        
Sep 20 14:55 SE 15 4 Clear   71 70     95%   72 30.01        
Sep 20 14:35 SE 16 2.5 Clear   71 70     96%   72 30.01        
Sep 20 14:15 SE 12 4 Cloudy SCT007 BKN013 OVC026 71 70     95%   73 30.01        
Sep 20 13:55 SE 12 3 Clear   72 69     93%   73 30.02        
Sep 20 13:35 SE 13 10 Cloudy SCT009 BKN015 OVC019 72 69     93%   73 30.03        
Sep 20 13:15 SE 14 10 Clear   71 70     95%   73 30.03        
Sep 20 12:55 SE 15 2.5 Clear   71 69     95%   72 30.04        
Sep 20 12:35 SE 9 3 Clear   72 70     94%   73 30.05        
Sep 20 12:15 SSE 12 2.5 Clear   71 68     91%   72 30.06        
Sep 20 11:55   7 Clear   74 66     75%   75 30.06        
Sep 20 11:35 SSE 16 10 Clear   76 66     71%   77 30.05        
Sep 20 11:15 SSE 14 10 Clear   76 66     70%   77 30.05        
Sep 20 10:55 SE 12 10 Clear   76 66     72%   76 30.05        
Sep 20 10:35 SSE 13 10 Clear   75 65     72%   76 30.05        
Sep 20 10:15 SE 10 10 Cloudy OVC025 75 65     71%   76 30.04        
Sep 20 09:55 SE 10 10 Clear   76 66     73%   76 30.04        
Sep 20 09:35 SE 9 10 Cloudy BKN028 OVC037 74 66     76%   75 30.04        
Sep 20 09:15 SE 10 10 Cloudy BKN033 OVC039 74 66     76%   75 30.05        
May 15 11:15 W 8 10 Clear   72 63     72%   73 30.01        
May 15 05:35 Calm 10 Clear   61 60     97%     29.91        
Notice The following observation data may not be complete
May 14 16:15   3 Clear     58      %     29.83        
May 14 13:35 SSW 7 10 Clear   84 68     58%   88 29.92        
May 14 06:15 SSE 8 10 Clear   70 64     81%     29.92        
May 14 01:55 Calm 10 Clear   69 63     80%     29.96        
May 13 23:15 Calm 10 Clear   72 63     73%   72 29.98        
May 13 12:15 S 18 10 Clear   84 67     56%   87 29.99        
May 13 09:55 S 15 10 Clear   77 67     72%   78 30        
May 13 01:15 S 12 10 Clear   72 64     76%   72 29.97        
May 12 18:35 S 12 10 Clear   80 66     63%   82 29.9        
May 12 13:15 S 20 10 Clear   81 66     60%   83 29.91        
May 12 05:15 SSE 12 10 Clear   70 61     72%   70 29.84        
May 12 03:15 SSE 9 10 Clear   70 61     74%   70 29.86        
May 11 08:35   10 Clear   71 60     69%   70 29.76